TimeEST,TemperatureF,Dew PointF,Humidity,Sea Level PressureIn,VisibilityMPH,Wind Direction,Wind SpeedMPH,Gust SpeedMPH,PrecipitationIn,Events,Conditions,WindDirDegrees,DateUTC
12:15 AM,48.2,47.8,99,29.97,4.0,Calm,Calm,-,0.01,Rain,Rain,0,2013-01-17 05:15:00
12:35 AM,48.2,48.0,99,29.97,4.0,Calm,Calm,-,0.03,Rain,Rain,0,2013-01-17 05:35:00
12:55 AM,48.2,48.2,100,29.98,4.0,Calm,Calm,-,0.05,Rain,Rain,0,2013-01-17 05:55:00
1:15 AM,48.2,48.2,100,29.99,3.0,Calm,Calm,-,0.01,Rain,Light Rain,0,2013-01-17 06:15:00
1:35 AM,48.2,48.2,100,29.98,3.0,Calm,Calm,-,0.02,Rain,Rain,0,2013-01-17 06:35:00
1:55 AM,48.2,48.2,100,29.99,4.0,Calm,Calm,-,0.03,Rain,Rain,0,2013-01-17 06:55:00
2:15 AM,48.2,48.2,100,29.99,3.0,Calm,Calm,-,0.01,Rain,Light Rain,0,2013-01-17 07:15:00
2:35 AM,47.8,47.8,100,29.97,2.5,Calm,Calm,-,0.01,Rain,Rain,0,2013-01-17 07:35:00
2:55 AM,48.0,48.0,100,30.00,2.5,North,3.5,-,0.01,Rain,Rain,360,2013-01-17 07:55:00
3:15 AM,48.2,48.2,100,30.00,3.0,NNE,3.5,-,0.03,Rain,Rain,30,2013-01-17 08:15:00
3:35 AM,48.2,48.2,100,30.00,3.0,Calm,Calm,-,0.04,Rain,Light Rain,0,2013-01-17 08:35:00
3:55 AM,48.2,48.2,100,29.99,4.0,Calm,Calm,-,0.06,Rain,Rain,0,2013-01-17 08:55:00
4:35 AM,48.2,48.2,100,29.99,4.0,Calm,Calm,-,N/A,,Light Drizzle,0,2013-01-17 09:35:00
4:55 AM,48.2,48.2,100,29.98,4.0,Calm,Calm,-,0.01,Rain,Light Rain,0,2013-01-17 09:55:00
5:15 AM,48.2,48.2,100,29.98,5.0,Calm,Calm,-,N/A,,Light Drizzle,0,2013-01-17 10:15:00
5:35 AM,48.2,48.2,100,29.99,4.0,Calm,Calm,-,0.01,Rain,Rain,0,2013-01-17 10:35:00
5:55 AM,47.8,47.8,100,29.99,5.0,Calm,Calm,-,0.02,Rain,Light Rain,0,2013-01-17 10:55:00
6:15 AM,47.8,47.8,100,29.99,5.0,ENE,3.5,-,0.01,Rain,Rain,60,2013-01-17 11:15:00
6:35 AM,47.7,47.7,100,29.98,5.0,NE,3.5,-,0.02,Rain,Light Rain,50,2013-01-17 11:35:00
7:15 AM,47.7,47.7,100,30.03,5.0,Calm,Calm,-,0.02,Rain,Rain,0,2013-01-17 12:15:00
7:35 AM,47.7,47.7,100,30.03,4.0,ENE,3.5,-,0.05,Rain,Rain,60,2013-01-17 12:35:00
7:55 AM,47.5,47.5,100,30.03,4.0,NE,4.6,-,0.07,Rain,Rain,40,2013-01-17 12:55:00
8:15 AM,46.2,46.0,99,30.04,10.0,NNE,6.9,-,N/A,Rain,Rain,30,2013-01-17 13:15:00
8:35 AM,45.5,44.2,95,30.05,4.0,NNE,3.5,-,0.04,Rain,Rain,30,2013-01-17 13:35:00
8:55 AM,45.3,44.4,97,30.06,7.0,NNE,3.5,-,0.06,Rain,Rain,20,2013-01-17 13:55:00
9:15 AM,45.0,44.4,98,30.06,3.0,NE,4.6,-,0.03,Rain,Heavy Rain,40,2013-01-17 14:15:00
9:35 AM,44.6,44.1,98,30.06,5.0,ENE,11.5,-,0.05,Rain,Rain,60,2013-01-17 14:35:00
9:55 AM,42.1,40.6,95,30.07,10.0,NE,6.9,-,0.06,Rain,Light Rain,50,2013-01-17 14:55:00
10:15 AM,41.5,39.9,94,30.06,4.0,NNE,6.9,17.3,0.02,Rain,Rain,30,2013-01-17 15:15:00
10:35 AM,41.4,38.8,91,30.06,10.0,NNE,10.4,19.6,0.03,Rain,Light Rain,20,2013-01-17 15:35:00
10:55 AM,40.5,37.8,90,30.06,5.0,NNE,10.4,16.1,0.05,Rain,Rain,20,2013-01-17 15:55:00
11:15 AM,40.3,37.2,89,30.06,10.0,North,8.1,-,N/A,Rain,Rain,360,2013-01-17 16:15:00
11:35 AM,39.7,37.4,91,30.05,5.0,North,6.9,-,0.01,Rain,Rain,10,2013-01-17 16:35:00
11:55 AM,39.4,38.1,95,30.04,1.5,North,6.9,-,0.05,Rain,Heavy Rain,10,2013-01-17 16:55:00
12:15 PM,39.4,38.5,97,30.03,1.0,NE,8.1,-,0.07,,Overcast,40,2013-01-17 17:15:00
12:35 PM,39.7,39.2,98,30.02,4.0,NNE,8.1,-,0.12,Rain,Heavy Rain,20,2013-01-17 17:35:00
12:55 PM,40.1,39.2,97,30.02,4.0,North,8.1,-,0.14,Rain,Rain,10,2013-01-17 17:55:00
1:15 PM,40.3,39.6,97,29.98,5.0,NE,8.1,-,N/A,Rain,Rain,40,2013-01-17 18:15:00
1:55 PM,40.5,39.7,97,29.95,2.5,NNE,9.2,16.1,0.02,Rain,Rain,30,2013-01-17 18:55:00
2:15 PM,40.8,40.1,97,29.94,5.0,NE,8.1,-,0.01,Rain,Rain,40,2013-01-17 19:15:00
2:35 PM,41.0,40.3,97,29.97,4.0,North,6.9,-,0.02,,Heavy Drizzle,10,2013-01-17 19:35:00
2:55 PM,40.5,39.9,98,29.96,2.0,North,9.2,-,0.04,Rain,Rain,10,2013-01-17 19:55:00
3:15 PM,40.1,39.2,97,29.95,4.0,NNE,8.1,16.1,0.03,Rain,Rain,20,2013-01-17 20:15:00
3:35 PM,39.7,39.2,98,29.94,5.0,NNE,8.1,-,0.03,Rain,Heavy Rain,30,2013-01-17 20:35:00
3:55 PM,39.6,38.8,97,29.95,2.0,NNE,9.2,-,0.06,Rain,Heavy Rain,20,2013-01-17 20:55:00
4:15 PM,39.4,38.7,97,30.02,0.8,North,4.6,-,0.08,,Overcast,350,2013-01-17 21:15:00
4:35 PM,38.7,37.9,97,29.99,1.2,NNE,13.8,19.6,0.20,Rain,Light Rain,20,2013-01-17 21:35:00
4:55 PM,37.9,37.0,97,30.01,3.0,NNE,8.1,-,0.25,Rain,Rain,20,2013-01-17 21:55:00
5:55 PM,37.0,36.0,96,29.97,4.0,NNE,10.4,25.3,0.16,Rain,Rain,30,2013-01-17 22:55:00
6:35 PM,36.0,34.7,95,30.04,2.5,NNE,11.5,18.4,0.07,Rain,Light Rain,20,2013-01-17 23:35:00
7:15 PM,35.1,34.2,97,30.06,3.0,NNE,8.1,17.3,0.02,,Overcast,30,2013-01-18 00:15:00
8:55 PM,32.9,32.4,98,30.01,2.5,NNE,5.8,-,0.19,Snow,Light Snow,30,2013-01-18 01:55:00
9:15 PM,32.7,32.4,99,30.05,2.5,NE,4.6,-,0.02,Snow,Light Snow,40,2013-01-18 02:15:00
9:35 PM,32.5,32.4,99,30.08,1.5,NNE,3.5,-,0.06,Snow,Light Snow,30,2013-01-18 02:35:00
9:55 PM,32.4,32.2,99,30.07,1.0,Calm,Calm,-,0.10,Snow,Snow,0,2013-01-18 02:55:00
10:15 PM,32.5,32.5,100,30.11,2.0,Calm,Calm,-,0.01,Snow,Light Snow,0,2013-01-18 03:15:00
10:35 PM,32.5,32.5,100,30.13,3.0,NW,3.5,-,0.03,Snow,Light Snow,310,2013-01-18 03:35:00
10:55 PM,33.1,33.1,100,30.15,10.0,WNW,3.5,-,0.03,,Overcast,290,2013-01-18 03:55:00